Regional Weather Roundup
Issued by NWS Green Bay, WI

Home | Current Version | Previous Version | Text Only | Print | Product List | Glossary On
Versions: 1 2 3 4 5 6 7 8 9 10 11 12 13 14 15 16 17 18 19 20 21 22 23 24 25 26 27 28 29 30 31 32 33 34 35 36 37 38 39 40 41 42 43 44 45 46 47 48 49 50
000
ASUS43 KGRB 251300
RWRGRB

NORTH-CENTRAL AND NORTHEAST WISCONSIN REGIONAL WEATHER ROUNDUP
NATIONAL WEATHER SERVICE GREEN BAY WI
800 AM CDT WED MAY 25 2016

WIZ005-009-010>012-018-019-251400-
NORTH CENTRAL WISCONSIN

CITY           SKY/WX    TMP DP  RH WIND       PRES   REMARKS
IRONWOOD       CLOUDY    55  55 100 E7        30.01R VSB 3/4
MANITOWISH WTR NOT AVBL
ARBOR VITAE    NOT AVBL
EAGLE RIVER    NOT AVBL
LAND O LAKES   NOT AVBL
RHINELANDER    CLOUDY    59  58  96 E13       30.05R FOG
PHILLIPS       NOT AVBL
ANTIGO         NOT AVBL
TOMAHAWK       NOT AVBL
MERRILL        NOT AVBL
$$

WIZ013-073-251400-
NORTHEAST WISCONSIN

CITY           SKY/WX    TMP DP  RH WIND       PRES   REMARKS
IRON MOUNTAIN  CLOUDY    54  51  90 E5        30.06R
MARINETTE      CLOUDY    56  54  93 NE7       30.07R
$$

WIZ017-030-035>037-045-251400-
CENTRAL WISCONSIN

CITY           SKY/WX    TMP DP  RH WIND       PRES   REMARKS
MEDFORD        NOT AVBL
WAUSAU         CLOUDY    61  57  87 E8        30.01R
MOSINEE        NOT AVBL
MARSHFIELD     MOSUNNY   64  58  80 E8        30.00R
WISC RAPIDS    CLOUDY    66  57  72 E8        30.01R
STEVENS POINT  NOT AVBL
WAUPACA        NOT AVBL
SHAWANO        NOT AVBL
CLINTONVILLE   NOT AVBL
WAUTOMA        MOSUNNY   66  58  75 NE12      30.01R
$$

WIZ038-039-048-051-251400-
FOX VALLEY

CITY           SKY/WX    TMP DP  RH WIND       PRES   REMARKS
NWS GREEN BAY  CLOUDY    57  56  96 NE10      30.05R FOG
APPLETON       FOG       57  57 100 E10G18    30.03R VSB 1/4
OSHKOSH        MOSUNNY   62  58  86 NE10      30.02R FOG
FOND DU LAC    SUNNY     70  60  70 NE8       30.01R
$$

WIZ022-050-052-251400-
EAST CENTRAL WISCONSIN

CITY           SKY/WX    TMP DP  RH WIND       PRES   REMARKS
EPHRAIM        NOT AVBL
STURGEON BAY   NOT AVBL
MANITOWOC      CLOUDY    55  55 100 NE9G17    30.05R FOG
SHEBOYGAN      SUNNY     59  53  80 NE16      30.03R
$$

LMZ563-521-522-541>543-251400-
LAKESHORE

STATION/POSITION TIME  TEMP    WIND        PRES    VSBY  WAVE
                       AIR SEA DIR/SP/G                  HT/PER
                 (UTC) (F)     (DEG/KT/KT) (MB)    (MI)  (FT/S)
SHEBOYGAN LKSHOR 1200   50      40/ 17/ 18 1016.4R
KEWAUNEE LKSHORE 1200   50      20/  7/ 10 1016.0R
NORTHPORT PIER   1200   51     360/  9/ 11 1016.9F
N MID LAKE BUOY  1150   47 44  360/  6/  8 1016.8F         1
CHAMBERS ISLAND  1200   53      20/ 10/ 14 1017.3S
MENOMINEE LKSHOR 1200   53      20/ 10/ 12 1015.9F
$$



USA.gov is the U.S. government's official web portal to all federal, state and local government web resources and services.